| time (UTC) | temp C | wind direction | speed KPH | gust KPH | rain 1hr cm | rain 24hr cm | rain mn cm | humidity % | barometer mb |
| 20260504185611 | 16 | 44 | 1.6 | 1.6 | 0.00 | 0.00 | 0.00 | 79 | 1032.3 |
| 20260504185107 | 16 | 355 | 1.6 | 1.6 | 0.00 | 0.00 | 0.00 | 80 | 1032.3 |
| 20260504184603 | 17 | 36 | 3.2 | 6.4 | 0.00 | 0.00 | 0.00 | 78 | 1032.5 |
| 20260504184058 | 17 | 79 | 1.6 | 1.6 | 0.00 | 0.00 | 0.00 | 78 | 1032.5 |
| 20260504183556 | 17 | 260 | 0.0 | 0.0 | 0.00 | 0.00 | 0.00 | 79 | 1032.3 |
| 20260504183054 | 17 | 249 | 0.0 | 0.0 | 0.00 | 0.00 | 0.00 | 79 | 1032.6 |
| 20260504182550 | 17 | 284 | 0.0 | 0.0 | 0.00 | 0.00 | 0.00 | 79 | 1032.6 |
| 20260504182048 | 17 | 157 | 0.0 | 0.0 | 0.00 | 0.00 | 0.00 | 79 | 1032.5 |
| 20260504181545 | 17 | 253 | 0.0 | 0.0 | 0.00 | 0.00 | 0.00 | 80 | 1032.5 |
| 20260504181043 | 17 | 254 | 0.0 | 0.0 | 0.00 | 0.00 | 0.00 | 80 | 1032.6 |
| 20260504180541 | 17 | 253 | 0.0 | 0.0 | 0.00 | 0.00 | 0.00 | 78 | 1032.6 |
| 20260504180040 | 17 | 254 | 0.0 | 0.0 | 0.00 | 0.00 | 0.00 | 76 | 1032.6 |
| 20260504175537 | 17 | 254 | 0.0 | 0.0 | 0.00 | 0.00 | 0.00 | 76 | 1032.6 |
| 20260504175034 | 17 | 254 | 0.0 | 0.0 | 0.00 | 0.00 | 0.00 | 76 | 1032.3 |
| 20260504174532 | 18 | 254 | 0.0 | 0.0 | 0.00 | 0.00 | 0.00 | 75 | 1032.3 |
| 20260504174028 | 18 | 254 | 0.0 | 0.0 | 0.00 | 0.00 | 0.00 | 73 | 1032.2 |
| 20260504173525 | 18 | 254 | 0.0 | 0.0 | 0.00 | 0.00 | 0.00 | 73 | 1032.3 |
| 20260504173022 | 18 | 254 | 0.0 | 0.0 | 0.00 | 0.00 | 0.00 | 74 | 1032.2 |
| 20260504172519 | 18 | 254 | 0.0 | 0.0 | 0.00 | 0.00 | 0.00 | 73 | 1032.5 |
| 20260504172015 | 18 | 255 | 0.0 | 0.0 | 0.00 | 0.00 | 0.00 | 73 | 1032.5 |
| 20260504171512 | 18 | 255 | 0.0 | 0.0 | 0.00 | 0.00 | 0.00 | 73 | 1032.2 |
| 20260504171009 | 18 | 254 | 0.0 | 0.0 | 0.00 | 0.00 | 0.00 | 74 | 1032.3 |
| 20260504170505 | 18 | 254 | 0.0 | 0.0 | 0.00 | 0.00 | 0.00 | 72 | 1032.3 |
| 20260504160425 | 20 | 275 | 0.0 | 1.6 | 0.00 | 0.00 | 0.00 | 64 | 1032.6 |
| 20260504150848 | 22 | 250 | 1.6 | 1.6 | 0.00 | 0.00 | 0.00 | 58 | 1032.7 |
| 20260504150345 | 22 | 305 | 6.4 | 6.4 | 0.00 | 0.00 | 0.00 | 57 | 1032.6 |
| 20260504141316 | 23 | 324 | 6.4 | 6.4 | 0.00 | 0.00 | 0.00 | 54 | 1032.6 |
| 20260504140812 | 23 | 18 | 6.4 | 6.4 | 0.00 | 0.00 | 0.00 | 54 | 1032.5 |
| 20260504140308 | 23 | 357 | 8.0 | 11.3 | 0.00 | 0.00 | 0.00 | 52 | 1032.7 |
| 20260504130736 | 23 | 20 | 6.4 | 6.4 | 0.00 | 0.00 | 0.00 | 56 | 1032.9 |
| 20260504130232 | 23 | 26 | 4.8 | 4.8 | 0.00 | 0.00 | 0.00 | 55 | 1032.8 |
| 20260504120156 | 22 | 330 | 3.2 | 4.8 | 0.00 | 0.00 | 0.00 | 54 | 1033.1 |
| 20260504110623 | 23 | 1 | 6.4 | 9.7 | 0.00 | 0.00 | 0.00 | 56 | 1034.5 |
| 20260504110120 | 24 | 351 | 8.0 | 11.3 | 0.00 | 0.00 | 0.00 | 55 | 1034.5 |
| 20260504100545 | 22 | 348 | 6.4 | 6.4 | 0.00 | 0.00 | 0.00 | 62 | 1035.7 |
| 20260504081939 | 21 | 328 | 4.8 | 6.4 | 0.00 | 0.00 | 0.00 | 68 | 1037.0 |
| 20260504081436 | 21 | 344 | 6.4 | 9.7 | 0.00 | 0.00 | 0.00 | 66 | 1037.1 |
| 20260504080932 | 21 | 12 | 4.8 | 4.8 | 0.00 | 0.00 | 0.00 | 69 | 1037.3 |
| 20260504080429 | 20 | 336 | 4.8 | 9.7 | 0.00 | 0.00 | 0.00 | 69 | 1037.1 |
| 20260504070356 | 19 | 29 | 1.6 | 1.6 | 0.00 | 0.00 | 0.00 | 74 | 1037.1 |
| 20260504050744 | 13 | 221 | 0.0 | 0.0 | 0.00 | 0.00 | 0.00 | 83 | 1036.0 |
| 20260504050241 | 12 | 210 | 0.0 | 0.0 | 0.00 | 0.00 | 0.00 | 86 | 1035.8 |
| 20260504045738 | 12 | 211 | 0.0 | 0.0 | 0.00 | 0.00 | 0.00 | 88 | 1035.8 |
| 20260504045233 | 12 | 216 | 0.0 | 0.0 | 0.00 | 0.00 | 0.00 | 88 | 1036.2 |
| 20260504044731 | 12 | 218 | 0.0 | 0.0 | 0.00 | 0.00 | 0.00 | 89 | 1035.8 |
| 20260504044229 | 12 | 225 | 0.0 | 0.0 | 0.00 | 0.00 | 0.00 | 90 | 1036.0 |
| 20260504043725 | 12 | 225 | 0.0 | 0.0 | 0.00 | 0.00 | 0.00 | 90 | 1036.0 |
| 20260504043222 | 12 | 224 | 0.0 | 0.0 | 0.00 | 0.00 | 0.00 | 90 | 1035.9 |
| 20260504042720 | 12 | 225 | 0.0 | 0.0 | 0.00 | 0.00 | 0.00 | 90 | 1035.7 |
| 20260504042216 | 12 | 224 | 0.0 | 0.0 | 0.00 | 0.00 | 0.00 | 89 | 1035.7 |
| 20260504041712 | 12 | 223 | 0.0 | 0.0 | 0.00 | 0.00 | 0.00 | 90 | 1035.6 |
| 20260504041208 | 12 | 226 | 0.0 | 0.0 | 0.00 | 0.00 | 0.00 | 90 | 1035.7 |
| 20260504040705 | 12 | 228 | 0.0 | 0.0 | 0.00 | 0.00 | 0.00 | 90 | 1035.7 |
| 20260504040202 | 12 | 223 | 0.0 | 0.0 | 0.00 | 0.00 | 0.00 | 90 | 1035.8 |
| 20260504035658 | 12 | 227 | 0.0 | 0.0 | 0.00 | 0.00 | 0.00 | 90 | 1035.7 |
| 20260504035156 | 12 | 228 | 0.0 | 0.0 | 0.00 | 0.00 | 0.00 | 90 | 1035.6 |
| 20260504034653 | 12 | 226 | 0.0 | 0.0 | 0.00 | 0.00 | 0.00 | 90 | 1035.6 |
| 20260504034150 | 12 | 222 | 0.0 | 0.0 | 0.00 | 0.00 | 0.00 | 90 | 1035.8 |
| 20260504033648 | 12 | 223 | 0.0 | 0.0 | 0.00 | 0.00 | 0.00 | 89 | 1035.6 |
| 20260504033145 | 12 | 220 | 0.0 | 0.0 | 0.00 | 0.00 | 0.00 | 89 | 1035.6 |
| 20260504032641 | 12 | 230 | 0.0 | 0.0 | 0.00 | 0.00 | 0.00 | 89 | 1035.3 |
| 20260504032138 | 12 | 234 | 0.0 | 0.0 | 0.00 | 0.00 | 0.00 | 89 | 1035.6 |
| 20260504031636 | 12 | 224 | 0.0 | 0.0 | 0.00 | 0.00 | 0.00 | 89 | 1035.5 |
| 20260504031132 | 12 | 224 | 0.0 | 0.0 | 0.00 | 0.00 | 0.00 | 88 | 1035.5 |
| 20260504030629 | 12 | 220 | 0.0 | 0.0 | 0.00 | 0.00 | 0.00 | 88 | 1035.3 |
| 20260504030125 | 12 | 222 | 0.0 | 0.0 | 0.00 | 0.00 | 0.00 | 88 | 1035.3 |
| 20260504025622 | 12 | 238 | 0.0 | 0.0 | 0.00 | 0.00 | 0.00 | 89 | 1035.3 |
| 20260504025119 | 12 | 206 | 0.0 | 0.0 | 0.00 | 0.00 | 0.00 | 89 | 1035.2 |
| 20260504024617 | 12 | 235 | 0.0 | 0.0 | 0.00 | 0.00 | 0.00 | 89 | 1035.2 |
| 20260504024113 | 12 | 222 | 0.0 | 0.0 | 0.00 | 0.00 | 0.00 | 89 | 1035.1 |
| 20260504023610 | 12 | 225 | 0.0 | 0.0 | 0.00 | 0.00 | 0.00 | 89 | 1035.2 |
| 20260504023105 | 12 | 218 | 0.0 | 0.0 | 0.00 | 0.00 | 0.00 | 89 | 1035.1 |
| 20260504022602 | 12 | 223 | 0.0 | 0.0 | 0.00 | 0.00 | 0.00 | 89 | 1035.2 |
| 20260504022058 | 12 | 230 | 0.0 | 0.0 | 0.00 | 0.00 | 0.00 | 89 | 1035.2 |
| 20260504021556 | 12 | 213 | 0.0 | 0.0 | 0.00 | 0.00 | 0.00 | 89 | 1035.1 |
| 20260504021052 | 12 | 216 | 0.0 | 0.0 | 0.00 | 0.00 | 0.00 | 88 | 1035.2 |
| 20260504020549 | 12 | 223 | 0.0 | 0.0 | 0.00 | 0.00 | 0.00 | 88 | 1035.5 |
| 20260504020046 | 12 | 228 | 0.0 | 0.0 | 0.00 | 0.00 | 0.00 | 88 | 1035.3 |
| 20260504015542 | 12 | 232 | 0.0 | 0.0 | 0.00 | 0.00 | 0.00 | 88 | 1035.3 |
| 20260504015038 | 12 | 222 | 0.0 | 0.0 | 0.00 | 0.00 | 0.00 | 88 | 1035.5 |
| 20260504014535 | 12 | 211 | 0.0 | 0.0 | 0.00 | 0.00 | 0.00 | 88 | 1035.5 |
| 20260504014032 | 12 | 236 | 0.0 | 0.0 | 0.00 | 0.00 | 0.00 | 88 | 1035.3 |
| 20260504013529 | 12 | 226 | 0.0 | 0.0 | 0.00 | 0.00 | 0.00 | 88 | 1035.7 |
| 20260504013021 | 12 | 237 | 0.0 | 0.0 | 0.00 | 0.00 | 0.00 | 88 | 1035.5 |
| 20260504012518 | 12 | 214 | 0.0 | 0.0 | 0.00 | 0.00 | 0.00 | 88 | 1035.5 |
| 20260504012016 | 12 | 225 | 0.0 | 0.0 | 0.00 | 0.00 | 0.00 | 88 | 1035.7 |
| 20260504011512 | 12 | 206 | 0.0 | 0.0 | 0.00 | 0.00 | 0.00 | 87 | 1035.7 |
| 20260504011008 | 12 | 217 | 0.0 | 1.6 | 0.00 | 0.00 | 0.00 | 87 | 1035.6 |
| 20260504010504 | 12 | 217 | 0.0 | 0.0 | 0.00 | 0.00 | 0.00 | 88 | 1035.7 |
| 20260504010000 | 12 | 234 | 0.0 | 0.0 | 0.00 | 0.00 | 0.00 | 87 | 1035.6 |
| 20260504005457 | 12 | 229 | 0.0 | 0.0 | 0.00 | 0.00 | 0.00 | 88 | 1035.6 |
| 20260504004954 | 12 | 224 | 0.0 | 0.0 | 0.00 | 0.00 | 0.00 | 87 | 1035.5 |
| 20260504004452 | 12 | 222 | 0.0 | 0.0 | 0.00 | 0.00 | 0.00 | 87 | 1035.6 |
| 20260504003949 | 12 | 212 | 0.0 | 0.0 | 0.00 | 0.00 | 0.00 | 87 | 1035.6 |
| 20260504003445 | 12 | 218 | 0.0 | 1.6 | 0.00 | 0.00 | 0.00 | 87 | 1035.7 |
| 20260504002942 | 12 | 221 | 0.0 | 0.0 | 0.00 | 0.00 | 0.00 | 87 | 1035.7 |
| 20260504002439 | 12 | 230 | 0.0 | 0.0 | 0.00 | 0.00 | 0.00 | 87 | 1035.8 |
| 20260504001936 | 12 | 223 | 0.0 | 0.0 | 0.00 | 0.00 | 0.00 | 87 | 1035.9 |
| 20260504001434 | 12 | 225 | 0.0 | 1.6 | 0.00 | 0.00 | 0.00 | 87 | 1036.2 |
| 20260504000930 | 13 | 220 | 0.0 | 1.6 | 0.00 | 0.00 | 0.00 | 87 | 1036.2 |
| 20260504000427 | 13 | 225 | 0.0 | 0.0 | 0.00 | 0.00 | 0.00 | 87 | 1036.0 |
| 20260503235925 | 13 | 221 | 0.0 | 0.0 | 0.00 | 0.00 | 0.00 | 87 | 1036.0 |
| 20260503235422 | 13 | 203 | 0.0 | 0.0 | 0.00 | 0.00 | 0.00 | 87 | 1036.0 |
| 20260503234920 | 13 | 203 | 0.0 | 0.0 | 0.00 | 0.00 | 0.00 | 87 | 1036.3 |
| 20260503234417 | 13 | 202 | 0.0 | 0.0 | 0.00 | 0.00 | 0.00 | 86 | 1036.3 |
| 20260503233915 | 13 | 202 | 0.0 | 0.0 | 0.00 | 0.00 | 0.00 | 85 | 1036.2 |
| 20260503233411 | 13 | 202 | 0.0 | 0.0 | 0.00 | 0.00 | 0.00 | 84 | 1036.3 |
| 20260503232907 | 13 | 202 | 0.0 | 0.0 | 0.00 | 0.00 | 0.00 | 85 | 1036.3 |
| 20260503232405 | 13 | 232 | 0.0 | 0.0 | 0.00 | 0.00 | 0.00 | 86 | 1036.4 |
| 20260503231903 | 13 | 232 | 0.0 | 0.0 | 0.00 | 0.00 | 0.00 | 86 | 1036.4 |
| 20260503231400 | 13 | 232 | 0.0 | 0.0 | 0.00 | 0.00 | 0.00 | 86 | 1036.5 |
| 20260503230855 | 13 | 232 | 0.0 | 0.0 | 0.00 | 0.00 | 0.00 | 86 | 1036.3 |
| 20260503230352 | 13 | 232 | 0.0 | 0.0 | 0.00 | 0.00 | 0.00 | 85 | 1036.4 |
| 20260503225850 | 13 | 231 | 0.0 | 0.0 | 0.00 | 0.00 | 0.00 | 85 | 1036.6 |
| 20260503225346 | 13 | 231 | 0.0 | 0.0 | 0.00 | 0.00 | 0.00 | 85 | 1036.6 |
| 20260503224842 | 13 | 230 | 0.0 | 0.0 | 0.00 | 0.00 | 0.00 | 84 | 1036.5 |
| 20260503224340 | 13 | 232 | 0.0 | 0.0 | 0.00 | 0.00 | 0.00 | 84 | 1036.6 |
| 20260503223837 | 13 | 230 | 0.0 | 0.0 | 0.00 | 0.00 | 0.00 | 84 | 1036.7 |
| 20260503223335 | 13 | 232 | 0.0 | 0.0 | 0.00 | 0.00 | 0.00 | 83 | 1036.6 |
| 20260503222830 | 13 | 236 | 0.0 | 0.0 | 0.00 | 0.00 | 0.00 | 84 | 1036.6 |
| 20260503222329 | 13 | 228 | 0.0 | 0.0 | 0.00 | 0.00 | 0.00 | 83 | 1036.6 |
| 20260503221827 | 14 | 226 | 0.0 | 0.0 | 0.00 | 0.00 | 0.00 | 83 | 1036.7 |
| 20260503221325 | 14 | 238 | 0.0 | 0.0 | 0.00 | 0.00 | 0.00 | 83 | 1036.5 |
| 20260503220815 | 13 | 241 | 0.0 | 0.0 | 0.00 | 0.00 | 0.00 | 83 | 1036.7 |
| 20260503220312 | 13 | 224 | 0.0 | 0.0 | 0.00 | 0.00 | 0.00 | 83 | 1036.6 |
| 20260503215809 | 13 | 223 | 0.0 | 0.0 | 0.00 | 0.00 | 0.00 | 83 | 1036.7 |
| 20260503215306 | 14 | 223 | 0.0 | 0.0 | 0.00 | 0.00 | 0.00 | 83 | 1036.7 |
| 20260503214804 | 14 | 222 | 0.0 | 0.0 | 0.00 | 0.00 | 0.00 | 83 | 1036.9 |
| 20260503214301 | 14 | 224 | 0.0 | 0.0 | 0.00 | 0.00 | 0.00 | 83 | 1037.0 |
| 20260503213758 | 14 | 227 | 0.0 | 0.0 | 0.00 | 0.00 | 0.00 | 82 | 1037.1 |
| 20260503213255 | 14 | 233 | 0.0 | 0.0 | 0.00 | 0.00 | 0.00 | 82 | 1037.1 |
| 20260503212752 | 14 | 232 | 0.0 | 0.0 | 0.00 | 0.00 | 0.00 | 82 | 1037.1 |
| 20260503212250 | 14 | 232 | 0.0 | 0.0 | 0.00 | 0.00 | 0.00 | 82 | 1037.1 |
| 20260503211747 | 14 | 232 | 0.0 | 0.0 | 0.00 | 0.00 | 0.00 | 82 | 1037.2 |
| 20260503211243 | 14 | 232 | 0.0 | 0.0 | 0.00 | 0.00 | 0.00 | 81 | 1037.3 |
| 20260503210739 | 15 | 232 | 0.0 | 0.0 | 0.00 | 0.00 | 0.00 | 81 | 1037.3 |
| 20260503210237 | 14 | 233 | 0.0 | 0.0 | 0.00 | 0.00 | 0.00 | 82 | 1037.3 |
| 20260503205732 | 15 | 230 | 0.0 | 0.0 | 0.00 | 0.00 | 0.00 | 81 | 1037.2 |
| 20260503205228 | 15 | 230 | 0.0 | 0.0 | 0.00 | 0.00 | 0.00 | 81 | 1037.3 |
| 20260503204724 | 15 | 246 | 0.0 | 0.0 | 0.00 | 0.00 | 0.00 | 80 | 1037.4 |
| 20260503204223 | 15 | 220 | 0.0 | 0.0 | 0.00 | 0.00 | 0.00 | 81 | 1037.4 |
| 20260503203719 | 15 | 221 | 0.0 | 0.0 | 0.00 | 0.00 | 0.00 | 80 | 1037.4 |
| 20260503203217 | 15 | 221 | 0.0 | 0.0 | 0.00 | 0.00 | 0.00 | 80 | 1037.4 |
| 20260503202714 | 15 | 223 | 0.0 | 0.0 | 0.00 | 0.00 | 0.00 | 80 | 1037.4 |
| 20260503202212 | 15 | 225 | 0.0 | 0.0 | 0.00 | 0.00 | 0.00 | 79 | 1037.6 |
| 20260503201709 | 15 | 225 | 0.0 | 0.0 | 0.00 | 0.00 | 0.00 | 79 | 1037.4 |
| 20260503201207 | 15 | 218 | 0.0 | 0.0 | 0.00 | 0.00 | 0.00 | 79 | 1037.7 |
| 20260503200703 | 15 | 218 | 0.0 | 0.0 | 0.00 | 0.00 | 0.00 | 79 | 1037.6 |
| 20260503200159 | 15 | 230 | 0.0 | 0.0 | 0.00 | 0.00 | 0.00 | 79 | 1037.6 |
| 20260503195656 | 15 | 232 | 0.0 | 0.0 | 0.00 | 0.00 | 0.00 | 78 | 1037.4 |
| 20260503195153 | 15 | 234 | 0.0 | 0.0 | 0.00 | 0.00 | 0.00 | 78 | 1037.6 |
| 20260503194650 | 15 | 234 | 0.0 | 0.0 | 0.00 | 0.00 | 0.00 | 78 | 1037.4 |
| 20260503194146 | 15 | 234 | 0.0 | 0.0 | 0.00 | 0.00 | 0.00 | 78 | 1037.7 |
| 20260503193643 | 15 | 234 | 0.0 | 0.0 | 0.00 | 0.00 | 0.00 | 79 | 1037.6 |
| 20260503193138 | 15 | 234 | 0.0 | 0.0 | 0.00 | 0.00 | 0.00 | 80 | 1037.7 |
| 20260503192634 | 15 | 235 | 0.0 | 0.0 | 0.00 | 0.00 | 0.00 | 79 | 1037.6 |
| 20260503192130 | 15 | 235 | 0.0 | 0.0 | 0.00 | 0.00 | 0.00 | 80 | 1037.4 |
| 20260503191627 | 15 | 234 | 0.0 | 0.0 | 0.00 | 0.00 | 0.00 | 79 | 1037.4 |
| 20260503191124 | 15 | 234 | 0.0 | 0.0 | 0.00 | 0.00 | 0.00 | 78 | 1037.7 |
| 20260503190621 | 15 | 234 | 0.0 | 0.0 | 0.00 | 0.00 | 0.00 | 79 | 1037.6 |
| 20260503190118 | 15 | 234 | 0.0 | 0.0 | 0.00 | 0.00 | 0.00 | 78 | 1037.6 |